TimeMDT,TemperatureF,Dew PointF,Humidity,Sea Level PressureIn,VisibilityMPH,Wind Direction,Wind SpeedMPH,Gust SpeedMPH,PrecipitationIn,Events,Conditions,WindDirDegrees,DateUTC
12:53 AM,36.0,10.0,34,30.21,9.0,NNW,5.8,-,0.00,Snow,Light Snow,330,2012-10-26 06:53:00
1:53 AM,28.9,9.0,43,30.24,10.0,Calm,Calm,-,0.00,,Clear,0,2012-10-26 07:53:00
2:53 AM,28.9,10.0,45,30.25,10.0,South,3.5,-,N/A,,Clear,180,2012-10-26 08:53:00
3:53 AM,24.1,10.9,57,30.26,10.0,Calm,Calm,-,N/A,,Clear,0,2012-10-26 09:53:00
4:53 AM,27.0,12.0,53,30.27,10.0,East,5.8,-,N/A,,Clear,90,2012-10-26 10:53:00
5:53 AM,25.0,12.0,58,30.31,10.0,East,6.9,-,N/A,,Clear,100,2012-10-26 11:53:00
7:53 AM,21.0,10.0,63,30.40,10.0,NE,3.5,-,N/A,,Clear,50,2012-10-26 13:53:00
10:53 AM,39.0,10.0,30,30.34,10.0,NE,4.6,-,0.00,,Clear,40,2012-10-26 16:53:00
11:53 AM,43.0,7.0,23,30.31,10.0,South,4.6,-,N/A,,Clear,190,2012-10-26 17:53:00
12:53 PM,48.0,3.0,16,30.27,10.0,SSW,4.6,-,N/A,,Clear,200,2012-10-26 18:53:00
1:53 PM,50.0,-0.0,13,30.24,10.0,South,4.6,-,N/A,,Clear,170,2012-10-26 19:53:00
2:53 PM,51.1,-9.9,8,30.22,10.0,Calm,Calm,-,N/A,,Clear,0,2012-10-26 20:53:00
3:53 PM,51.1,-4.0,10,30.21,10.0,SSW,9.2,-,N/A,,Clear,210,2012-10-26 21:53:00
4:53 PM,51.1,-0.0,12,30.19,10.0,SSW,10.4,-,N/A,,Clear,210,2012-10-26 22:53:00
5:53 PM,48.0,-2.0,13,30.21,10.0,SSW,11.5,-,N/A,,Clear,210,2012-10-26 23:53:00
6:53 PM,39.9,-0.9,18,30.24,10.0,SSW,3.5,-,N/A,,Clear,210,2012-10-27 00:53:00
7:53 PM,34.0,-0.0,24,30.29,10.0,Calm,Calm,-,N/A,,Clear,0,2012-10-27 01:53:00
8:53 PM,30.0,1.0,29,30.29,10.0,ENE,8.1,-,N/A,,Clear,60,2012-10-27 02:53:00
9:53 PM,28.0,-0.9,29,30.27,10.0,Calm,Calm,-,N/A,,Clear,0,2012-10-27 03:53:00
10:53 PM,26.1,-0.0,32,30.27,10.0,East,8.1,-,0.00,,Clear,80,2012-10-27 04:53:00
11:53 PM,23.0,-0.9,35,30.26,9.0,ENE,4.6,-,0.00,Snow,Light Snow,60,2012-10-27 05:53:00